FloripaSat 1
1 44885U 19093G   25192.79775075  .00004057  00000-0  34142-3 0  9990
2 44885  97.8184 280.4682 0012854  97.6455 262.6228 14.98750619301578
RS-44
1 44909U 19096E   25192.76431062  .00000025  00000-0  57726-4 0  9997
2 44909  82.5196 205.8948 0216650 220.0953 138.3986 12.79741942258858
UPMSat 2
1 46276U 20061E   25192.47606548  .00054669  00000-0  40485-3 0  9997
2 46276  97.2418 268.0224 0002076 147.3210 212.8183 15.72767258270470
SALSAT
1 46495U 20068K   25192.81129935  .00004858  00000-0  20890-3 0  9998
2 46495  97.8615 172.3395 0012678  56.4938 303.7507 15.23098364263439
CubeSX-Sirius-HSE
1 47951U 21022V   25157.62701764  .07883385  25648-5  89537-3 0  9993
2 47951  97.4004  72.1904 0010275 223.9924 136.0557 16.36879307233400
CubeSX-HSE
1 47952U 21022W   25157.69972699  .06655353  25454-5  93288-3 0  9992
2 47952  97.3980  72.5414 0010307 219.3637 140.6911 16.34906352233436
GRBAlpha
1 47959U 21022AD  25160.45426279  .07940347  25506-5  90589-3 0  9995
2 47959  97.3899  75.6235 0011032 227.2558 132.7812 16.36806138232695
TUBIN
1 48900U 21059X   25192.82389208  .00035331  00000-0  39151-3 0  9994
2 48900  97.6756   4.7340 0004173 118.2492 241.9187 15.62895165225079
LEDSAT
1 49069U 21073D   25192.77118805  .00062494  00000-0  64173-3 0  9996
2 49069  97.3878 275.7479 0006965 308.5199  51.5435 15.64700648216467
CUTE
1 49263U 21088D   25192.17289252  .00025414  00000-0  48690-3 0  9994
2 49263  97.4502 269.3654 0009359 123.8907 236.3234 15.47971452209317
TeikyoSat 4
1 49396U 21102B   25192.54058548  .00001030  00000-0  71279-4 0  9999
2 49396  97.4083 229.8141 0013272  30.9742 329.2267 15.07749034201364
Z-Sat
1 49399U 21102E   25192.86047305  .00002791  00000-0  15400-3 0  9994
2 49399  97.3779 233.4196 0017670 357.9265   2.1891 15.14629977201863
KOSEN 1
1 49402U 21102H   25192.58912353  .00003907  00000-0  18076-3 0  9994
2 49402  97.3684 236.8158 0014631 332.5518  27.4943 15.20633552202154
HO-113
1 50466U 21131B   25192.84426199  .00000297  00000-0  10643-3 0  9996
2 50466  98.5109 282.0401 0004972  52.3566 307.8073 14.40844115186095
Foresail-1
1 52766U 22057AL  25176.64799660  .13857605  27391-5  25307-3 0  9992
2 52766  97.5832 331.2310 0012137 233.7199 258.4922 16.46795272172486
SNUGLITE 2
1 52899U 22065F   25192.62964352  .00000612  00000-0  12782-3 0  9996
2 52899  98.1727 334.2984 0007926  22.7898 337.3654 14.63271491161177
UmKA 1 (RS40S)
1 57172U 23091G   25192.82779061  .00003657  00000-0  19560-3 0  9991
2 57172  97.5562 248.0446 0013420 217.3953 142.6347 15.15633987112364
CubeBel-2 (EU11S)
1 57175U 23091K   25192.83709087  .00005866  00000-0  27683-3 0  9995
2 57175  97.5561 249.4006 0011072 223.2513 136.7853 15.19792082112454
VERONIKA
1 58261U 23174F   25192.66652614  .00201245  00000-0  10379-2 0  9990
2 58261  97.4092 280.9989 0006329 245.8448 114.2159 15.80568213 93739
ENSO
1 58470U 23185J   25192.82706815  .00046974  00000-0  60401-3 0  9993
2 58470  97.3721 269.0515 0004644 317.6845  42.4053 15.58939115 90054
EIRSAT-1
1 58472U 23185L   25192.81568603  .00132845  00000-0  90888-3 0  9990
2 58472  97.3656 271.5836 0003570 279.6141  80.4720 15.74374001 90227
SONATE-2
1 59112U 24043Q   25192.34703174  .00008464  00000-0  23882-3 0  9997
2 59112  97.5175 324.1874 0010562   8.0078 352.1332 15.36597835 75216
MO-122
1 60209U 24125G   25192.09335849  .00010083  00000-0  27895-3 0  9997
2 60209  97.2759  43.3736 0018885  29.6371 330.5940 15.37020825 56796
GRBBeta
1 60237U 24128C   25192.80815931  .00002421  00000-0  18990-3 0  9998
2 60237  61.9927 327.1676 0054161  64.5240 296.1440 15.02861340 55044
Curium One
1 60242U 24128H   25192.78981953  .00004422  00000-0  31095-3 0  9993
2 60242  61.9828 325.0390 0054098  60.7821 299.8667 15.05500570 55085
ROBUSTA-3A
1 60243U 24128J   25192.80258598  .00004292  00000-0  30641-3 0  9990
2 60243  61.9900 325.9312 0053136  58.4726 302.1541 15.05025138 55070
CatSat
1 60246U 24125J   25192.33273856  .00005606  00000-0  18559-3 0  9996
2 60246  97.2559  42.4579 0041270 343.3509  16.6375 15.30885601 54845
HYPERVIEW-1G (RS66S)
1 61772U 24199AP  25192.85772690  .00015270  00000-0  42842-3 0  9999
2 61772  97.3490  61.6658 0015124  80.0447 280.2504 15.36546458 81912
AO-123
1 61781U 24199AY  25192.85384776  .00004337  00000-0  15744-3 0  9996
2 61781  97.3506  60.1911 0017532  84.5684 275.7556 15.28703165 81819
ZIMSAT 2
1 61783U 24199BA  25192.85739820  .00028796  00000-0  66027-3 0  9997
2 61783  97.3462  62.5418 0014641  77.7744 282.5143 15.42592936 85123
HADES-R (SO-124)
1 62690U 25009CK  25192.19740999  .00019787  00000-0  66344-3 0  9994
2 62690  97.4089 272.9186 0001421   7.0873 353.0387 15.30939808 26980
HYDRA-T
1 62692U 25009CM  25192.17715821  .00020718  00000-0  68807-3 0  9992
2 62692  97.4090 272.9452 0001064 359.8266   0.2975 15.31239034 26986
JINJUSat 1B
1 63210U 25052A   25192.43837851  .00006088  00000-0  27603-3 0  9997
2 63210  97.4385  86.1649 0003722 182.8999 177.2216 15.21193976 18092
NUSHSAT 1
1 63211U 25052B   25192.42790078  .00006423  00000-0  28862-3 0  9997
2 63211  97.4374  86.1639 0003535 187.7755 172.3426 15.21481406 18093
TEVEL2-4
1 63213U 25052D   25192.25062049  .00006649  00000-0  30149-3 0  9991
2 63213  97.4292  85.8161 0002161 201.1407 158.9739 15.21158146 18065
TEVEL2-5
1 63214U 25052E   25192.64633487  .00007539  00000-0  34157-3 0  9997
2 63214  97.4290  86.2043 0002230 199.5444 160.5706 15.21141966 18128
TEVEL2-6
1 63215U 25052F   25192.25461751  .00006564  00000-0  29826-3 0  9992
2 63215  97.4293  85.8128 0002167 203.9257 156.1878 15.21093877 18063
TEVEL2-1
1 63217U 25052H   25192.13868958  .00005723  00000-0  26218-3 0  9999
2 63217  97.4268  85.6244 0001891 228.2758 131.8316 15.20866665 18040
TEVEL2-2
1 63218U 25052J   25192.13896740  .00005659  00000-0  25927-3 0  9994
2 63218  97.4269  85.6252 0001892 229.4230 130.6841 15.20869018 18045
TEVEL2-3
1 63219U 25052K   25192.13921177  .00005717  00000-0  26197-3 0  9993
2 63219  97.4268  85.6245 0001889 229.6275 130.4796 15.20862390 18047
TEVEL2-8
1 63237U 25052AD  25192.22980243  .00005612  00000-0  26635-3 0  9993
2 63237  97.4334  85.6022 0006059 262.5233  97.5314 15.19640501 18043
TEVEL2-9
1 63238U 25052AE  25192.43100228  .00005617  00000-0  26710-3 0  9993
2 63238  97.4335  85.7947 0006115 261.3575  98.6968 15.19575770 18076
TEVEL2-7
1 63239U 25052AF  25192.43366161  .00005721  00000-0  27223-3 0  9990
2 63239  97.4334  85.7896 0006193 261.9130  98.1402 15.19543207 18076
HYDRA-W
1 63490U 25052BL  25192.58880112  .00017775  00000-0  72271-3 0  9997
2 63490  97.4279  86.4180 0009251 255.6828 104.3383 15.24561779 18134
HADES-ICM (SO-125)
1 63492U 25052BN  25191.49734867  .00012677  00000-0  52497-3 0  9997
2 63492  97.4293  85.2876 0009488 265.8022  94.2130 15.24019200 17966
